Location: Unspecified
(0.0000°N, 0.0000°E)
Time: 12:59:55
(UTC+00:00)

S-56A Canister/Altair - Visible Passes

Search period start: 24 July 2014 00:00
Search period end: 03 August 2014 00:00
Orbit: 633 x 2503 km, 38.9° (Epoch: 21 July)

Date Brightness Start Highest point End Pass type
(mag) Time Alt. Az. Time Alt. Az. Time Alt. Az.
24 Jul 9.6 19:39:01 10° SW 19:53:46 62° SE 20:00:40 30° ENE visible
24 Jul 10.2 21:47:12 10° WSW 21:58:19 42° WNW 21:58:19 42° WNW visible
25 Jul 9.9 19:06:00 10° SW 19:20:41 56° SE 19:32:22 10° ENE visible
25 Jul 10.0 21:13:30 10° WSW 21:26:58 52° NW 21:30:02 43° N visible
26 Jul 10.1 18:33:04 10° SSW 18:47:33 50° SE 18:59:39 10° ENE visible
26 Jul 9.9 20:39:56 10° WSW 20:54:11 60° NW 21:02:01 22° NNE visible
26 Jul 11.2 22:54:34 10° WNW 22:59:38 14° NW 22:59:42 14° NW visible
27 Jul 9.9 20:06:29 10° SW 20:21:19 69° NW 20:32:30 10° NE visible
27 Jul 11.1 22:19:23 10° W 22:26:58 18° NW 22:31:55 13° NNW visible
28 Jul 9.9 19:33:09 10° SW 19:48:21 78° NW 20:00:16 10° NE visible
28 Jul 11.1 21:44:43 10° W 21:54:15 23° NW 22:01:55 10° N visible
29 Jul 9.9 18:59:57 10° SW 19:15:19 86° NW 19:27:53 10° NE visible
29 Jul 11.0 21:10:23 10° W 21:21:28 28° NW 21:30:19 10° N visible
30 Jul 10.0 18:26:52 10° SW 18:42:13 85° SE 18:55:23 10° NE visible
30 Jul 10.9 20:36:17 10° W 20:48:37 33° NW 20:58:31 10° NNE visible
31 Jul 9.9 05:18:11 10° N 05:21:06 17° NE 05:24:05 10° E visible
31 Jul 10.9 20:02:24 10° WSW 20:15:42 39° NW 20:26:34 10° NNE visible
01 Aug 10.1 04:46:54 10° N 04:48:58 13° NE 04:51:00 10° ENE visible
01 Aug 10.8 19:28:42 10° WSW 19:42:42 45° NW 19:54:28 10° NNE visible
01 Aug 11.7 21:47:53 10° NW 21:49:48 10° NW 21:51:38 10° NNW visible
02 Aug 10.7 18:55:12 10° WSW 19:09:39 51° NW 19:22:14 10° NNE visible
02 Aug 11.6 21:10:50 10° WNW 21:16:48 14° NW 21:22:11 10° N visible
